SCP
0 0 0 0 0 0 0 0 0 0 0 0 0 0 0 0 0 0 0 0 0 0 0 0 1 1 1 0 0 0 0 0 0 0 0 0 0 0 0 0 0 0 0
0 0 0 0 0 0 0 0 0 0 0 0 0 0 0 0 0 0 0 0 0 0 0 0 1 1 0 0 0 0 0 0 0 0 0 0 0 0 0 0 0 0 0
0 0 0 0 0 0 0 0 0 0 0 0 0 0 0 0 0 0 0 0 0 0 0 0 0 1 1 1 1 1 0 0 0 0 0 0 0 0 0 0 0 0 0
0 0 0 0 0 0 0 0 0 0 0 0 0 0 0 0 0 0 0 0 0 0 0 0 0 0 1 1 1 1 1 0 0 0 0 0 0 0 0 0 0 0 0
0 0 0 0 0 0 0 0 0 0 0 0 0 0 0 0 0 0 0 0 0 0 0 0 0 0 0 1 1 1 1 1 0 0 0 0 0 0 0 0 0 0 0
0 0 0 0 0 0 0 0 0 0 0 0 0 0 0 0 0 0 0 0 0 0 0 0 0 0 0 0 1 1 1 0 1 0 0 0 0 0 0 0 0 0 0
0 0 0 0 0 0 0 0 0 0 0 0 0 0 0 0 0 0 0 0 0 0 0 0 0 1 0 0 0 1 1 1 1 1 0 0 0 0 0 0 0 0 0
0 0 0 0 0 0 0 0 0 0 0 0 0 0 0 0 0 0 0 0 0 0 0 0 0 0 0 0 0 0 1 1 1 1 0 0 0 0 0 0 0 0 0
0 0 0 0 0 0 0 0 0 0 0 0 0 0 0 0 0 0 0 0 0 0 0 0 0 0 0 0 0 0 0 1 1 1 1 0 0 0 0 0 0 0 0
0 0 0 0 0 0 0 0 0 0 0 0 0 0 0 0 0 0 0 0 0 0 0 0 0 0 0 0 0 0 0 0 0 0 0 0 0 0 0 0 0 0 0
0 0 0 0 0 0 0 0 0 0 0 0 0 0 0 0 0 0 0 0 0 0 0 0 0 0 0 1 0 0 0 0 0 0 0 0 0 0 0 0 0 0 0
0 0 0 0 0 0 0 0 0 0 0 0 0 0 0 0 0 0 0 0 0 0 0 0 0 0 0 0 -0 0 0 0 0 0 0 0 0 0 0 0 0 0 0
0 0 0 0 0 0 0 0 0 0 0 0 0 0 0 0 0 0 0 0 0 0 0 0 0 0 0 0 0 0 0 0 0 0 0 0 0 0 0 0 0 0 0
0 0 0 0 0 0 0 0 0 0 0 0 0 0 0 0 0 0 0 0 0 0 0 0 0 0 0 -0 0 -0 0 0 0 0 0 0 0 0 0 0 0 0 0
0 0 0 0 0 0 0 0 0 0 0 0 0 0 0 0 0 0 0 0 0 0 0 0 0 0 0 0 -0 0 -0 0 0 0 0 0 0 0 0 0 0 0 0
0 0 0 0 0 0 0 0 0 0 0 0 0 0 0 0 0 0 0 0 0 0 0 0 0 0 0 0 -0 0 0 0 0 0 0 0 0 0 0 0 0 0 0
0 0 0 0 0 0 0 0 0 0 0 0 0 0 0 0 0 0 0 0 0 0 0 0 0 0 0 -0 0 0 0 0 0 0 0 0 0 0 0 0 0 0 0
0 0 0 0 0 0 0 0 0 0 0 0 0 0 0 0 0 0 0 0 0 0 0 0 0 0 0 -0 -0 0 0 0 0 0 0 0 0 0 0 0 0 0 0
0 0 0 0 0 0 0 0 0 0 0 0 0 0 0 0 0 0 0 0 0 0 0 0 0 0 0 0 -0 0 0 0 0 0 0 0 0 0 0 0 0 0 0
0 0 0 0 0 0 0 0 0 0 0 0 0 0 0 0 0 0 0 0 0 0 0 0 0 0 0 0 0 0 0 0 0 0 0 0 0 0 0 0 0 0 0
0 0 0 0 0 0 0 0 0 0 0 0 0 0 0 0 0 0 0 0 0 0 0 0 0 0 0 0 0 -0 0 0 0 0 0 0 0 0 0 0 0 0 0
0 0 0 0 0 0 0 0 0 0 0 0 0 0 0 0 0 0 0 -0 -0 -0 0 0 0 -0 0 0 0 0 0 0 0 0 0 0 0 0 0 0 0 0 0
0 0 0 0 0 0 0 0 0 0 0 0 0 0 0 0 0 0 0 0 -0 -0 0 -0 -0 -0 -0 0 0 0 0 0 0 0 0 0 0 0 0 0 0 0 0
0 0 0 0 0 0 0 0 0 0 0 0 0 0 0 0 0 0 0 0 0 -0 0 0 0 -0 -0 0 0 0 0 0 0 0 0 0 0 0 0 0 0 0 0
0 0 0 0 0 0 0 0 0 0 0 0 0 0 0 0 0 0 0 0 0 0 -0 -0 -0 -0 0 -0 0 0 0 0 0 0 0 0 0 0 0 0 0 0 0
0 0 0 0 0 0 0 0 0 0 0 0 0 0 0 -0 0 0 0 0 0 0 0 -0 0 -0 -0 -0 0 0 0 0 0 0 0 0 0 0 0 0 0 0 0
Wind_Speed_500mb
54 58 61 59 57 55 53 53 55 55 55 54 62 59 76 77 78 78 87 75 76 76 90 85 79 77 81 82 78 76 71 62 58 58 55 48 48 51 53 53 53 48 54
61 63 62 61 61 58 59 59 59 61 64 62 62 67 66 75 81 82 82 92 94 87 75 93 92 83 80 88 87 84 79 73 66 64 61 55 52 49 53 54 53 53 49
59 61 64 65 64 63 61 62 67 69 70 68 71 68 70 73 72 77 85 92 90 97 94 86 92 93 90 89 92 89 85 79 75 73 69 64 60 56 52 53 52 50 53
59 62 63 63 62 63 64 63 63 69 72 71 72 74 76 76 78 72 85 88 97 107 97 91 87 93 92 85 99 97 96 88 87 82 75 71 68 68 64 58 57 52 56
62 63 63 62 61 60 60 58 61 61 70 72 73 75 76 81 83 81 85 81 103 100 103 92 83 83 92 90 101 108 108 100 95 89 81 75 74 72 67 65 64 60 57
58 58 59 58 56 58 58 56 58 59 63 68 71 75 77 79 84 91 93 88 74 95 98 100 102 96 93 97 100 112 132 109 98 96 91 81 81 75 71 71 70 61 64
52 54 55 55 53 54 54 54 55 57 60 57 64 73 79 80 84 93 96 98 93 86 95 103 109 106 103 103 102 111 117 103 96 103 95 86 84 78 78 75 74 69 69
53 55 58 61 59 58 57 55 54 56 57 53 54 50 46 59 65 60 74 94 100 93 100 97 109 112 111 104 105 104 109 114 135 105 101 91 88 89 84 85 77 81 73
56 56 56 56 57 56 57 54 51 50 57 55 47 38 23 23 40 36 20 41 59 73 98 107 90 126 115 106 109 109 105 119 117 107 103 100 97 96 91 90 87 86 83
58 56 56 56 56 53 53 52 50 48 49 55 54 57 65 69 40 46 52 52 36 49 71 81 89 99 104 100 116 109 110 118 122 118 112 108 104 103 100 91 88 89 91
57 54 51 49 48 49 53 55 51 51 51 54 47 51 66 70 76 65 74 64 70 76 56 60 74 86 90 120 115 107 120 116 123 123 123 117 117 110 104 104 92 90 97
59 54 50 48 46 46 48 53 53 55 54 55 56 58 58 52 45 50 61 65 73 78 77 76 71 66 77 107 107 99 123 131 122 122 125 128 130 122 121 109 103 92 91
62 58 52 49 46 45 46 47 49 53 55 58 59 63 67 68 67 68 66 66 70 72 67 68 74 83 82 70 70 119 129 126 121 110 119 123 128 125 124 103 117 87 99
61 58 55 51 49 49 47 48 50 52 52 57 57 60 67 71 69 73 69 63 62 58 80 91 70 65 67 91 82 95 57 89 80 86 109 111 123 128 139 115 113 105 87
57 54 49 47 44 44 47 47 48 51 52 56 59 61 64 72 72 67 66 71 65 65 65 54 57 76 85 70 81 75 73 81 102 105 110 122 113 121 133 142 104 109 91
52 49 46 44 44 43 45 45 49 49 51 54 56 60 63 63 67 68 70 67 73 75 80 63 63 47 68 71 53 61 73 88 68 82 89 90 107 108 112 123 123 137 112
52 47 44 43 43 43 41 43 43 48 52 55 57 61 61 69 73 72 64 59 62 60 77 75 75 73 50 77 76 62 56 57 61 73 64 84 99 101 114 112 128 129 117
48 43 41 41 41 41 40 40 41 45 52 56 55 58 62 61 62 64 60 68 65 66 66 66 60 80 80 69 71 69 60 59 71 70 59 52 61 105 110 107 109 113 117
46 43 44 43 39 38 38 37 40 45 47 49 51 53 49 50 53 57 59 59 64 65 68 77 79 64 73 58 68 59 38 57 63 61 68 69 71 74 61 89 86 108 114
46 44 43 41 38 39 36 38 43 45 42 39 40 38 38 40 50 57 55 56 60 64 60 74 53 67 50 54 62 79 59 26 37 37 32 34 39 53 63 88 95 104 94
44 46 47 44 38 38 44 46 43 37 33 31 29 28 27 34 42 52 48 50 57 48 49 51 44 48 43 39 49 48 55 58 53 30 33 26 30 38 44 49 58 48 84
45 48 50 52 49 47 48 45 44 40 29 28 31 33 32 30 33 41 46 47 45 45 50 34 47 49 57 46 43 41 53 40 28 22 16 19 24 30 25 22 26 27 43
39 44 47 50 52 52 51 47 45 41 35 29 26 30 32 33 32 34 37 37 36 38 46 55 55 54 60 59 47 45 56 49 47 36 27 17 18 22 25 32 39 47 62
37 42 45 48 50 51 51 51 46 41 36 30 28 28 27 26 21 24 29 32 35 38 42 50 53 52 53 48 50 45 58 48 33 33 35 37 43 48 51 52 41 42 56
30 36 40 42 45 48 52 53 49 46 41 36 30 27 29 28 22 14 20 27 33 34 34 35 41 44 42 48 48 43 53 53 41 46 45 52 57 56 50 48 45 33 37
25 29 33 35 38 42 45 46 48 50 49 44 39 34 36 36 28 21 12 11 22 24 25 27 37 45 50 55 44 38 44 59 54 42 49 52 63 54 32 37 39 36 33
Wind_Direction_500mb
307 305 303 299 296 290 282 275 271 270 272 272 263 267 259 259 256 255 247 240 242 242 234 240 245 243 236 232 227 223 212 221 227 222 222 222 222 214 207 207 203 203 201
303 302 300 298 295 292 287 280 273 269 264 263 264 262 266 261 260 254 251 247 241 243 242 240 241 242 238 233 229 224 217 219 225 222 221 220 221 224 216 217 210 207 208
300 299 298 296 294 290 283 276 276 275 269 262 259 257 257 259 262 261 258 250 248 241 251 238 242 244 242 239 231 228 222 217 218 221 222 222 219 221 224 223 216 213 205
302 302 299 296 293 289 286 281 274 269 272 272 265 259 257 255 257 260 254 261 246 250 243 242 232 242 243 242 233 231 229 221 215 221 219 222 213 215 220 220 217 213 211
309 306 303 301 298 292 285 281 274 268 267 271 275 269 261 259 257 255 253 256 255 260 233 231 240 239 242 242 233 232 228 224 216 222 221 218 212 215 219 221 217 215 211
309 305 304 303 299 292 286 281 275 271 267 268 272 274 273 264 258 255 255 251 253 254 253 242 243 241 234 239 237 232 229 218 222 221 222 218 220 217 220 220 216 217 215
308 306 304 302 300 295 290 285 279 275 272 271 274 274 277 274 265 259 255 254 251 247 253 252 245 247 239 239 237 235 235 232 225 226 224 222 225 224 218 223 218 217 219
312 307 304 301 298 294 288 283 279 278 275 272 272 280 291 288 281 279 265 257 254 251 247 252 248 247 239 239 235 236 233 230 230 223 224 226 228 227 223 224 219 216 218
313 308 302 297 294 290 286 284 280 275 275 272 262 253 279 258 298 286 275 278 261 255 253 255 251 234 239 240 242 236 236 236 235 230 232 228 229 231 230 226 224 218 217
318 314 305 298 294 290 287 283 282 277 271 272 270 254 248 258 281 289 281 272 267 260 247 248 253 255 255 246 244 239 236 236 236 231 231 232 230 231 231 230 228 223 219
321 315 307 298 290 282 281 281 278 275 272 268 270 274 263 257 256 267 279 278 272 261 267 255 249 250 256 245 242 246 242 241 237 234 231 229 232 233 231 231 229 224 222
327 321 316 307 300 291 284 283 283 281 279 273 267 262 262 265 265 266 271 276 280 282 271 258 253 254 251 257 267 256 255 249 244 237 235 232 231 230 244 232 232 225 227
330 327 322 316 308 301 295 291 287 282 279 277 276 269 264 258 257 260 266 274 277 275 280 273 267 259 264 259 257 255 243 244 242 241 238 236 236 233 227 236 235 230 234
328 325 321 316 307 300 294 290 283 280 278 277 273 269 270 270 267 258 258 265 275 281 272 268 269 275 275 263 266 267 246 232 242 243 240 242 240 241 234 240 236 228 234
328 323 318 314 310 305 301 296 288 283 281 278 274 273 270 270 271 269 265 256 262 271 272 272 283 269 268 278 267 267 259 266 257 251 243 240 244 246 240 239 247 228 226
332 327 324 321 317 313 307 301 297 295 290 285 281 276 271 265 269 269 266 265 258 262 270 268 261 276 269 267 278 272 269 270 259 255 237 250 248 243 244 246 248 244 235
339 336 334 330 325 321 316 307 302 300 294 289 285 280 271 267 267 269 263 258 258 259 262 270 269 257 275 257 267 280 276 256 259 262 263 257 247 245 248 250 249 243 236
348 348 345 341 337 330 324 316 310 303 300 295 291 288 279 271 272 264 262 262 264 261 266 275 276 268 265 266 277 276 266 262 256 252 258 266 258 242 234 251 244 243 243
359 3 356 348 345 341 336 329 316 310 307 302 297 289 276 270 265 264 262 264 262 269 268 259 268 264 258 275 263 262 279 251 258 262 258 251 253 257 254 253 257 256 256
4 12 3 355 351 348 343 335 329 323 319 312 302 292 281 267 266 268 262 261 269 275 272 244 274 256 261 266 262 254 265 280 281 267 258 262 251 253 255 257 254 257 258
6 17 12 7 6 8 3 344 334 324 312 314 317 310 301 285 268 261 268 269 273 271 272 258 265 247 265 275 261 257 259 259 269 274 285 268 263 267 257 262 258 271 252
11 22 18 13 14 17 8 5 355 345 327 309 304 308 301 293 281 268 262 262 267 263 267 266 258 264 263 272 275 255 237 231 219 263 258 252 251 260 245 247 244 226 229
9 20 21 17 19 16 15 11 9 2 357 348 335 327 319 303 278 273 263 253 251 261 261 263 267 257 259 259 280 267 238 227 241 228 225 198 188 168 158 164 176 187 181
3 14 16 17 18 19 25 21 15 11 15 17 7 353 344 331 307 276 265 260 260 263 259 254 256 261 266 259 275 272 258 236 207 190 187 145 155 141 132 128 130 133 136
0 7 12 16 18 21 24 25 25 23 23 26 26 22 10 357 343 302 266 268 276 278 275 258 252 251 249 257 263 261 242 221 185 176 181 164 152 145 144 140 138 142 142
4 3 3 8 16 20 24 25 27 28 29 29 31 31 31 26 20 9 359 287 258 255 249 249 249 251 244 246 237 228 238 212 199 172 181 169 163 153 142 151 155 160 160
Wind_Speed_850mb
54 58 61 59 57 55 53 53 55 55 55 54 62 59 76 77 78 78 87 75 76 76 90 85 79 77 81 82 78 76 71 62 58 58 55 48 48 51 53 53 53 48 54
61 63 62 61 61 58 59 59 59 61 64 62 62 67 66 75 81 82 82 92 94 87 75 93 92 83 80 88 87 84 79 73 66 64 61 55 52 49 53 54 53 53 49
59 61 64 65 64 63 61 62 67 69 70 68 71 68 70 73 72 77 85 92 90 97 94 86 92 93 90 89 92 89 85 79 75 73 69 64 60 56 52 53 52 50 53
59 62 63 63 62 63 64 63 63 69 72 71 72 74 76 76 78 72 85 88 97 107 97 91 87 93 92 85 99 97 96 88 87 82 75 71 68 68 64 58 57 52 56
62 63 63 62 61 60 60 58 61 61 70 72 73 75 76 81 83 81 85 81 103 100 103 92 83 83 92 90 101 108 108 100 95 89 81 75 74 72 67 65 64 60 57
58 58 59 58 56 58 58 56 58 59 63 68 71 75 77 79 84 91 93 88 74 95 98 100 102 96 93 97 100 112 132 109 98 96 91 81 81 75 71 71 70 61 64
52 54 55 55 53 54 54 54 55 57 60 57 64 73 79 80 84 93 96 98 93 86 95 103 109 106 103 103 102 111 117 103 96 103 95 86 84 78 78 75 74 69 69
53 55 58 61 59 58 57 55 54 56 57 53 54 50 46 59 65 60 74 94 100 93 100 97 109 112 111 104 105 104 109 114 135 105 101 91 88 89 84 85 77 81 73
56 56 56 56 57 56 57 54 51 50 57 55 47 38 23 23 40 36 20 41 59 73 98 107 90 126 115 106 109 109 105 119 117 107 103 100 97 96 91 90 87 86 83
58 56 56 56 56 53 53 52 50 48 49 55 54 57 65 69 40 46 52 52 36 49 71 81 89 99 104 100 116 109 110 118 122 118 112 108 104 103 100 91 88 89 91
57 54 51 49 48 49 53 55 51 51 51 54 47 51 66 70 76 65 74 64 70 76 56 60 74 86 90 120 115 107 120 116 123 123 123 117 117 110 104 104 92 90 97
59 54 50 48 46 46 48 53 53 55 54 55 56 58 58 52 45 50 61 65 73 78 77 76 71 66 77 107 107 99 123 131 122 122 125 128 130 122 121 109 103 92 91
62 58 52 49 46 45 46 47 49 53 55 58 59 63 67 68 67 68 66 66 70 72 67 68 74 83 82 70 70 119 129 126 121 110 119 123 128 125 124 103 117 87 99
61 58 55 51 49 49 47 48 50 52 52 57 57 60 67 71 69 73 69 63 62 58 80 91 70 65 67 91 82 95 57 89 80 86 109 111 123 128 139 115 113 105 87
57 54 49 47 44 44 47 47 48 51 52 56 59 61 64 72 72 67 66 71 65 65 65 54 57 76 85 70 81 75 73 81 102 105 110 122 113 121 133 142 104 109 91
52 49 46 44 44 43 45 45 49 49 51 54 56 60 63 63 67 68 70 67 73 75 80 63 63 47 68 71 53 61 73 88 68 82 89 90 107 108 112 123 123 137 112
52 47 44 43 43 43 41 43 43 48 52 55 57 61 61 69 73 72 64 59 62 60 77 75 75 73 50 77 76 62 56 57 61 73 64 84 99 101 114 112 128 129 117
48 43 41 41 41 41 40 40 41 45 52 56 55 58 62 61 62 64 60 68 65 66 66 66 60 80 80 69 71 69 60 59 71 70 59 52 61 105 110 107 109 113 117
46 43 44 43 39 38 38 37 40 45 47 49 51 53 49 50 53 57 59 59 64 65 68 77 79 64 73 58 68 59 38 57 63 61 68 69 71 74 61 89 86 108 114
46 44 43 41 38 39 36 38 43 45 42 39 40 38 38 40 50 57 55 56 60 64 60 74 53 67 50 54 62 79 59 26 37 37 32 34 39 53 63 88 95 104 94
44 46 47 44 38 38 44 46 43 37 33 31 29 28 27 34 42 52 48 50 57 48 49 51 44 48 43 39 49 48 55 58 53 30 33 26 30 38 44 49 58 48 84
45 48 50 52 49 47 48 45 44 40 29 28 31 33 32 30 33 41 46 47 45 45 50 34 47 49 57 46 43 41 53 40 28 22 16 19 24 30 25 22 26 27 43
39 44 47 50 52 52 51 47 45 41 35 29 26 30 32 33 32 34 37 37 36 38 46 55 55 54 60 59 47 45 56 49 47 36 27 17 18 22 25 32 39 47 62
37 42 45 48 50 51 51 51 46 41 36 30 28 28 27 26 21 24 29 32 35 38 42 50 53 52 53 48 50 45 58 48 33 33 35 37 43 48 51 52 41 42 56
30 36 40 42 45 48 52 53 49 46 41 36 30 27 29 28 22 14 20 27 33 34 34 35 41 44 42 48 48 43 53 53 41 46 45 52 57 56 50 48 45 33 37
25 29 33 35 38 42 45 46 48 50 49 44 39 34 36 36 28 21 12 11 22 24 25 27 37 45 50 55 44 38 44 59 54 42 49 52 63 54 32 37 39 36 33
Wind_Direction_850mb
307 305 303 299 296 290 282 275 271 270 272 272 263 267 259 259 256 255 247 240 242 242 234 240 245 243 236 232 227 223 212 221 227 222 222 222 222 214 207 207 203 203 201
303 302 300 298 295 292 287 280 273 269 264 263 264 262 266 261 260 254 251 247 241 243 242 240 241 242 238 233 229 224 217 219 225 222 221 220 221 224 216 217 210 207 208
300 299 298 296 294 290 283 276 276 275 269 262 259 257 257 259 262 261 258 250 248 241 251 238 242 244 242 239 231 228 222 217 218 221 222 222 219 221 224 223 216 213 205
302 302 299 296 293 289 286 281 274 269 272 272 265 259 257 255 257 260 254 261 246 250 243 242 232 242 243 242 233 231 229 221 215 221 219 222 213 215 220 220 217 213 211
309 306 303 301 298 292 285 281 274 268 267 271 275 269 261 259 257 255 253 256 255 260 233 231 240 239 242 242 233 232 228 224 216 222 221 218 212 215 219 221 217 215 211
309 305 304 303 299 292 286 281 275 271 267 268 272 274 273 264 258 255 255 251 253 254 253 242 243 241 234 239 237 232 229 218 222 221 222 218 220 217 220 220 216 217 215
308 306 304 302 300 295 290 285 279 275 272 271 274 274 277 274 265 259 255 254 251 247 253 252 245 247 239 239 237 235 235 232 225 226 224 222 225 224 218 223 218 217 219
312 307 304 301 298 294 288 283 279 278 275 272 272 280 291 288 281 279 265 257 254 251 247 252 248 247 239 239 235 236 233 230 230 223 224 226 228 227 223 224 219 216 218
313 308 302 297 294 290 286 284 280 275 275 272 262 253 279 258 298 286 275 278 261 255 253 255 251 234 239 240 242 236 236 236 235 230 232 228 229 231 230 226 224 218 217
318 314 305 298 294 290 287 283 282 277 271 272 270 254 248 258 281 289 281 272 267 260 247 248 253 255 255 246 244 239 236 236 236 231 231 232 230 231 231 230 228 223 219
321 315 307 298 290 282 281 281 278 275 272 268 270 274 263 257 256 267 279 278 272 261 267 255 249 250 256 245 242 246 242 241 237 234 231 229 232 233 231 231 229 224 222
327 321 316 307 300 291 284 283 283 281 279 273 267 262 262 265 265 266 271 276 280 282 271 258 253 254 251 257 267 256 255 249 244 237 235 232 231 230 244 232 232 225 227
330 327 322 316 308 301 295 291 287 282 279 277 276 269 264 258 257 260 266 274 277 275 280 273 267 259 264 259 257 255 243 244 242 241 238 236 236 233 227 236 235 230 234
328 325 321 316 307 300 294 290 283 280 278 277 273 269 270 270 267 258 258 265 275 281 272 268 269 275 275 263 266 267 246 232 242 243 240 242 240 241 234 240 236 228 234
328 323 318 314 310 305 301 296 288 283 281 278 274 273 270 270 271 269 265 256 262 271 272 272 283 269 268 278 267 267 259 266 257 251 243 240 244 246 240 239 247 228 226
332 327 324 321 317 313 307 301 297 295 290 285 281 276 271 265 269 269 266 265 258 262 270 268 261 276 269 267 278 272 269 270 259 255 237 250 248 243 244 246 248 244 235
339 336 334 330 325 321 316 307 302 300 294 289 285 280 271 267 267 269 263 258 258 259 262 270 269 257 275 257 267 280 276 256 259 262 263 257 247 245 248 250 249 243 236
348 348 345 341 337 330 324 316 310 303 300 295 291 288 279 271 272 264 262 262 264 261 266 275 276 268 265 266 277 276 266 262 256 252 258 266 258 242 234 251 244 243 243
359 3 356 348 345 341 336 329 316 310 307 302 297 289 276 270 265 264 262 264 262 269 268 259 268 264 258 275 263 262 279 251 258 262 258 251 253 257 254 253 257 256 256
4 12 3 355 351 348 343 335 329 323 319 312 302 292 281 267 266 268 262 261 269 275 272 244 274 256 261 266 262 254 265 280 281 267 258 262 251 253 255 257 254 257 258
6 17 12 7 6 8 3 344 334 324 312 314 317 310 301 285 268 261 268 269 273 271 272 258 265 247 265 275 261 257 259 259 269 274 285 268 263 267 257 262 258 271 252
11 22 18 13 14 17 8 5 355 345 327 309 304 308 301 293 281 268 262 262 267 263 267 266 258 264 263 272 275 255 237 231 219 263 258 252 251 260 245 247 244 226 229
9 20 21 17 19 16 15 11 9 2 357 348 335 327 319 303 278 273 263 253 251 261 261 263 267 257 259 259 280 267 238 227 241 228 225 198 188 168 158 164 176 187 181
3 14 16 17 18 19 25 21 15 11 15 17 7 353 344 331 307 276 265 260 260 263 259 254 256 261 266 259 275 272 258 236 207 190 187 145 155 141 132 128 130 133 136
0 7 12 16 18 21 24 25 25 23 23 26 26 22 10 357 343 302 266 268 276 278 275 258 252 251 249 257 263 261 242 221 185 176 181 164 152 145 144 140 138 142 142
4 3 3 8 16 20 24 25 27 28 29 29 31 31 31 26 20 9 359 287 258 255 249 249 249 251 244 246 237 228 238 212 199 172 181 169 163 153 142 151 155 160 160